Location: Newark
(43.9494°N, 6.8108°E)
Time: 17:55:37
(UTC+00:00)

A-11 Canister half - Pass Details

Date: 30 October 2019
Orbit: 1514 x 1685 km, 47.2° (Epoch: 19 November)

Event Time Altitude Azimuth Distance (km) Brightness Sun altitude
Rises 23:57:32 0° 248° (WSW) 4,929 - -58.4°
Reaches altitude 10° 00:00:43 10° 249° (WSW) 3,934 - -58.2°
Maximum altitude 00:10:52 88° 338° (NNW) 1,653 - -57.5°
Exits shadow 00:19:16 16° 71° (ENE) 3,375 11.0 -56.8°
Drops below altitude 10° 00:20:44 10° 71° (ENE) 3,827 11.3 -56.7°
Sets 00:23:47 0° 72° (ENE) 4,790 11.9 -56.4°
